Regional Weather Roundup
Issued by NWS

Home | Current Version | Previous Version | Graphics & Text | Print | Product List | Glossary Off
Versions: 1 2 3 4 5 6 7 8 9 10 11 12 13 14 15 16 17 18 19 20 21 22 23 24 25 26 27 28 29 30 31 32 33 34 35 36 37 38 39 40 41 42 43 44 45 46 47 48 49 50

000
ASUS43 KLSX 180759
RWRMO

WEATHER SUMMARY FOR MISSOURI
NATIONAL WEATHER SERVICE SPRINGFIELD MO
300 AM CDT SAT APR 18 2015

NOTE: "FAIR" INDICATES FEW OR NO CLOUDS BELOW 12,000 FEET WITH NO
       SIGNIFICANT WEATHER AND/OR OBSTRUCTIONS TO VISIBILITY.
       CURRENT SKY AND/OR WEATHER CONDITIONS ARE NOT AVAILABLE FOR
       CHILLICOTHE AND FARMINGTON.

MOZ001>031-035>038-043-044-053-054-180900-
...NORTHERN AND WESTERN MISSOURI...

CITY           SKY/WX    TMP DP  RH WIND       PRES   REMARKS
KANSAS CTY INT CLOUDY    63  57  81 E7        29.95F
KANSAS C DTWN  CLOUDY    65  57  75 CALM      29.94S
LEE`S SUMMIT   CLOUDY    63  57  81 CALM      29.95F
ST JOSEPH      CLOUDY    64  57  78 VRB3      29.95F
CHILLICOTHE      N/A     64  59  83 CALM      29.97F
KIRKSVILLE     CLOUDY    63  55  75 E6        29.99F

$$
MOZ066>068-077>081-088>096-101>105-180900-
...SOUTHWEST MISSOURI...

CITY           SKY/WX    TMP DP  RH WIND       PRES   REMARKS
SPRINGFIELD    MOCLDY    63  60  90 SE10      29.97F
JOPLIN         MOCLDY    63  59  87 SE5       29.95F

$$
MOZ032>034-039>042-045>050-055>058-069>072-180900-
...CENTRAL MISSOURI...

CITY           SKY/WX    TMP DP  RH WIND       PRES   REMARKS
COLUMBIA       CLOUDY    64  57  78 SE7       29.98F
JEFFERSON CITY CLOUDY    67  56  67 E7        29.98S
ROLLA          PTCLDY    61  57  87 SE8       29.98F
SEDALIA        CLOUDY    62  55  77 SE5       29.96F
WHITEMAN AFB   CLOUDY    63  55  76 E3        29.94F
OSAGE BEACH    PTCLDY    63  55  77 SE3       29.98F

$$
MOZ051-052-059>065-180900-
...EAST CENTRAL MISSOURI...

CITY           SKY/WX    TMP DP  RH WIND       PRES   REMARKS
ST LOUIS INTL  MOCLDY    65  55  70 E3        30.01S
SPIRIT OF STL  MOCLDY    56  54  93 CALM      29.99F FOG
ST CHARLES     PTCLDY    58  56  93 NE3       30.00F FOG

$$
MOZ072>076-082>087-097>100-106>115-180900-
...SOUTH CENTRAL AND SOUTHEAST MISSOURI...

CITY           SKY/WX    TMP DP  RH WIND       PRES   REMARKS
CAPE GIRARDEAU MOCLDY    57  57 100 CALM      30.00F FOG
FARMINGTON     PTCLDY    59  57  94 CALM      30.05F
POPLAR BLUFF   CLOUDY    57  55  93 CALM      29.99F
WEST PLAINS    CLOUDY    63  61  93 S3        30.01F FOG

$$


USA.gov is the U.S. government's official web portal to all federal, state and local government web resources and services.